Погода в Урынке

Россия / Орловская область     52°04′23″N   37°20′29″E
темп.,
°C
ветер,
м/с
пор.,
м/с
влажн.,
%
обл.,
%
осадки,
мм/ч
давл.,
гПа
погр.,
м
14 мая, пт
пт1400:00+10юв339399 0.0 101628
03:00+11вюв349397 0.1 101566
06:00+12в389471 0.1 1014184
09:00+17вюв5879100 0.3 1013479
12:00+21юв7116782 0.1 10131408
15:00+22ююв8126995 2.1 10111235
18:00+20ююв61372100 0.2 1010705
21:00+16ююв41591100 2.6 1009336
15 мая, сб
сб1500:00+15ю359588 6.8 1009112
03:00+14ююз34930 7.4 101064
06:00+13ююз3890100 0.0 1011160
09:00+17ююз5878100 0.0 1012497
12:00+20ююз57626 0.0 10121385
15:00+21ююз69550 0.0 10122099
18:00+19юз586810 0.3 1012724
21:00+14ююз34832 0.3 101350
16 мая, вс
вс1600:00+13юз338744 0.0 101430
03:00+12ю228780 0.0 101411
06:00+14ююв238374 0.0 101461
09:00+18ююз247110 0.0 1015403
12:00+22ююз23550 0.0 10151337
15:00+24ююв1345100 0.0 10142026
18:00+23всв2261100 0.0 101357
21:00+17всв337929 0.0 101330
17 мая, пн
пн1700:00+15всв48866 0.2 1012135
03:00+14всв379336 0.2 1011112
06:00+15в41186100 0.0 1010240
09:00+20вюв5116793 0.0 1010422
12:00+24юв7125319 0.0 1009892
15:00+25юв71456100 0.0 10081577
18:00+23юв7136388 0.0 1007529
21:00+18юв4108029 0.0 1007164
18 мая, вт
вт1800:00+16юв4987100 0.0 1007150
03:00+15юв389071 0.0 1006146
06:00+16ююв51191100 0.0 1006309
09:00+20ю71081100 0.1 1006664
12:00+19ююз81181100 0.1 10081018
15:00+21ююз7971100 0.3 10081249
18:00+19ююз5879100 0.8 1008888
21:00+15ююв4992100 3.3 1008174